Regional Weather Roundup
Issued by NWS

Home | Current Version | Previous Version | Graphics & Text | Print | Product List | Glossary On
Versions: 1 2 3 4 5 6 7 8 9 10 11 12 13 14 15 16 17 18 19 20 21 22 23 24 25 26 27 28 29 30 31 32 33 34 35 36 37 38 39 40 41 42 43 44 45 46 47 48 49 50
000
ASUS45 KABQ 261401
RWRNM
NEW MEXICO REGIONAL WEATHER ROUNDUP
NATIONAL WEATHER SERVICE ALBUQUERQUE NM
800 AM MDT MON SEP 26 2016

NOTE: "FAIR" MEANS FEW OR NO CLOUDS BELOW 12,000 FEET AGL WITH NO
       SIGNIFICANT WEATHER OR OBSTRUCTIONS TO VISION.

      THIS PRODUCT IS RELEASED AS TWO VERSIONS.  ONE VERSION NEAR
      THE TOP OF THE HOUR CONTAINING PRELIMINARY DATA FROM ALBUQUERQUE
      AND OTHER STATIONS.  A FINAL VERSION WITH ADDITIONAL DATA IS
      ISSUED ABOUT 10 MINUTES AFTER THE HOUR.

NMZ501-503-504-510>518-261500-
NORTHWEST PLATEAU/NORTHCENTRAL MOUNTAINS

CITY           SKY/WX    TMP DP  RH WIND       PRES   REMARKS
FARMINGTON     FAIR      49  37  63 E9        30.46S
LOS ALAMOS     FAIR      47  30  53 E3        30.54R
SANTA FE       FAIR      46  35  65 N6        30.50R
TAOS           FAIR      39  28  65 N3        30.55S
ANGEL FIRE     FAIR      27  25  94 CALM      30.60S

$$
NMZ402-403-502-505>509-261500-
WESTCENTRAL MOUNTAINS/SOUTHWEST MOUNTAINS

CITY           SKY/WX    TMP DP  RH WIND       PRES   REMARKS
GALLUP         FAIR      41  30  65 CALM      30.48S
SILVER CITY    CLOUDY    60  37  41 E10       30.32S

$$
NMZ407-409-411-412-261500-
SOUTHERN DESERTS

CITY           SKY/WX    TMP DP  RH WIND       PRES   REMARKS
DEMING         PTSUNNY   63  42  46 NE13      30.30R
LAS CRUCES     PTSUNNY   62  37  39 E6        30.33R
HOLLOMAN AFB   CLOUDY    64  35  33 E7        30.29R
ALAMOGORDO     FAIR      63  37  39 E7        30.32R
T OR C         PTSUNNY   58  38  47 N17G26    30.36R

$$
NMZ519>523-261500-
CENTRAL VALLEYS/CENTRAL HIGHLANDS

CITY           SKY/WX    TMP DP  RH WIND       PRES   REMARKS
ALBUQUERQUE    FAIR      56  34  43 CALM      30.48R
DOUBLE EAGLE   MOSUNNY   46  32  57 N7        30.49R
CLINES CORNERS NOT AVBL
BELEN          NOT AVBL
SOCORRO        FAIR      56  35  44 N8        30.44R

$$
NMZ524>526-539-540-261500-
SOUTHCENTRAL MOUNTAINS

CITY           SKY/WX    TMP DP  RH WIND       PRES   REMARKS
RUIDOSO        FAIR      48  37  66 SE8       30.51R

$$
NMZ527>531-261500-
NORTHEAST HIGHLANDS/NORTHEAST PLAINS

CITY           SKY/WX    TMP DP  RH WIND       PRES   REMARKS
LAS VEGAS      FAIR      39  33  79 NE3       30.51F
RATON          FAIR      39  33  79 NE6       30.49S WCI  35
CLAYTON        FAIR      53  40  61 W5        30.45S

$$
NMZ532>537-261500-
EASTCENTRAL PLAINS

CITY           SKY/WX    TMP DP  RH WIND       PRES   REMARKS
TUCUMCARI      FAIR      49  35  58 W5        30.43R
CANNON AFB     NOT AVBL
CLOVIS AIRPORT FAIR      52  39  62 N10       30.42R

$$
NMZ028-029-538-261500-
SOUTHEAST PLAINS

CITY           SKY/WX    TMP DP  RH WIND       PRES   REMARKS
ROSWELL        CLOUDY    54  42  64 N7        30.40R
ARTESIA        PTSUNNY   57  46  67 N10       30.40R
CARLSBAD       CLOUDY    56  49  77 NW5       30.36S


$$




USA.gov is the U.S. government's official web portal to all federal, state and local government web resources and services.